sat.trackr.live / text

‹ back to catalog

STARLINK-37294

NORAD 68559 · 2026-070T

PAYLOAD ACTIVE UNKNOWN

§ Identity

Operator
Country
US
Launch date
2026-04-02
Launch site
AFETR
Launch vehicle
Mass (kg)
RCS (m²)

Purposes: comms

External: N2YO · Heavens-Above · Gunter

§ Orbital elements

Epoch: 2026-05-25T04:00:03.998880Z

Period
93.85 min
Inclination
53.1585°
Eccentricity
0.0000875
Mean motion
15.34385184 rev/d
Perigee alt
462.1 km
Apogee alt
463.3 km
Semi-major
6,840.9 km
B*
2.6828e-4
RAAN
6.7395°
Arg perigee
89.1043°
Mean anomaly
226.9195°
Rev number
601

§ Raw data

STARLINK-372941 68559U 26070T   26145.16671295  .00008695  00000+0  26828-3 0  99992 68559  53.1585   6.7395 0000875  89.1043 226.9195 15.34385184  6010

JSON: /api/v1/satellites/68559 · /tle

For live sub-satellite position, see the globe view (requires WebGL).

§ Visibility from observer

Set your observer location to see the next 7 days of passes ≥ 10°. The values pass through the URL so the page stays shareable.

No JS? Fill the form by hand. The geolocation button needs JavaScript.